OBJECT AV, 68459

Orbit data source: Space-Track

You're viewing an Uncataloged Satellite

Recently launched and/or uncataloged satellites may have evolving metadata. Metadata may include but not limited to: Owner, Maufacturer, Bus, Motor, and Mission.

OBJECT AV, 68459 is a satellite in SSO that was launched on Mon, 30 Mar 2026 UTC via an FALCON 9 launch vehicle from the Air Force Western Test Range (AFWTR). Unknown objects in Earth's orbit typically refer to objects detected orbiting the Earth but have not yet been identified or cataloged. These objects could be anything from previously untracked satellites, spent rocket stages, debris from satellite collisions, or even natural meteoroids temporarily captured by Earth's gravity.

Loading next visibility...
Identifier
68459, 2026-067AV
Orbit
SSO
Country
Flag of TBDTBD
Related business
None
Manufacturer
Unknown
Mission
Operational spacecraft
Bus & Motor
Unknown
Mass
Unknown
Launch date (UTC)
2026-03-30 (1 month ago)
Launch vehicle
FALCON 9
Launch site
Air Force Western Test Range (AFWTR)
Object type
Unknown
Shape & HBR
Unknown shape, 1.1 m
Radar Cross Section
RCS unknown

Expand to show TLE details & history
Last TLE update: 16 hours ago

TLE from 16 hours ago
0 OBJECT AV
1 68459U 26067AV  26126.84039244  .00005299  00000-0  27136-3 0  9991
2 68459  97.4515  85.8491 0005462 190.3804 169.7317 15.17013614  5662
Epoch: 2026-05-06T20:10Z
TLE epoch observation values (Epoch: 2026-05-06T20:10:09.906Z)
Latitude
-0.00009°
Longitude
-81.38727°
Altitude
521.663 km
Speed
7.6 km/s
True Right ascension
05h 43m 23s
True Declination
0° 00' 00"
Sunlit
Object was in daylight at epoch
Visualization orbit readout
Latitude
Unknown
Longitude
Unknown
Altitude
Unknown
Speed
Unknown
Apparent Right ascension
Unknown
Apparent Declination
Unknown
Sunlit
N/A
Visualization observer readout
Local Sidereal Time
20:04:22
Azimuth
Unknown
Elevation
Unknown
Doppler factor
Unknown
Orbital elements
Apogee altitude
515.607 km
Perigee altitude
508.081 km
Semi-major axis
6,889.981 km
Eccentricity
0.00055
Inclination
97.4515°
RAAN
85.8491°
Arg. of periapsis
190.3804°
True anomaly
169.74285°
Mean anomaly
169.7317°
Eccentric anomaly
169.73728°
Mean motion
3.79504 °/min
Orbital period
94.86 mins
BSTAR
0.00027136
Loading maneuver chart data...
Computing Atmospheric mass density...
Loading historical data...
Loading historical data...
Loading historical data...
Loading historical data...
Loading historical data...
Loading historical data...
Loading historical data...

Documentation

Showing up to 5 results
|